TimeICT,TemperatureF,Dew PointF,Humidity,Sea Level PressureIn,VisibilityMPH,Wind Direction,Wind SpeedMPH,Gust SpeedMPH,PrecipitationIn,Events,Conditions,WindDirDegrees,DateUTC
12:00 AM,77.0,73.4,89,29.86,6.2,Calm,Calm,-,N/A,,Mostly Cloudy,0,2013-02-27 17:00:00
12:30 AM,77.0,73.4,89,29.86,6.2,Calm,Calm,-,N/A,,Mostly Cloudy,0,2013-02-27 17:30:00
1:00 AM,78,75,88,29.81,6,Calm,Calm,,,,Scattered Clouds,,2013-02-27 18:00:00
1:00 AM,77.0,73.4,89,29.83,6.2,Calm,Calm,-,N/A,,Mostly Cloudy,0,2013-02-27 18:00:00
1:30 AM,77.0,73.4,89,29.83,6.2,Calm,Calm,-,N/A,,Mostly Cloudy,0,2013-02-27 18:30:00
2:00 AM,78.8,73.4,83,29.80,6.2,Calm,Calm,-,N/A,,Mostly Cloudy,0,2013-02-27 19:00:00
2:30 AM,78.8,73.4,83,29.80,6.2,Calm,Calm,-,N/A,,Mostly Cloudy,0,2013-02-27 19:30:00
3:00 AM,77.0,73.4,89,29.80,6.2,Calm,Calm,-,N/A,,Mostly Cloudy,0,2013-02-27 20:00:00
3:30 AM,77.0,73.4,89,29.80,6.2,Calm,Calm,-,N/A,,Mostly Cloudy,0,2013-02-27 20:30:00
4:00 AM,77.0,73.4,89,29.80,6.2,Calm,Calm,-,N/A,,Mostly Cloudy,0,2013-02-27 21:00:00
4:30 AM,75.2,73.4,94,29.80,6.2,Calm,Calm,-,N/A,,Mostly Cloudy,0,2013-02-27 21:30:00
5:00 AM,75.2,73.4,94,29.80,6.2,Calm,Calm,-,N/A,,Mostly Cloudy,0,2013-02-27 22:00:00
6:30 AM,75.2,71.6,89,29.80,6.2,Calm,Calm,-,N/A,,Mostly Cloudy,0,2013-02-27 23:30:00
7:30 AM,75.2,73.4,94,29.80,6.2,Calm,Calm,-,N/A,,Mostly Cloudy,0,2013-02-28 00:30:00
8:00 AM,77.0,73.4,89,29.80,6.2,East,3.5,-,N/A,,Scattered Clouds,90,2013-02-28 01:00:00
8:30 AM,82.4,73.4,74,29.83,6.2,ENE,9.2,-,N/A,,Mostly Cloudy,60,2013-02-28 01:30:00
9:00 AM,84.2,73.4,70,29.83,6.2,East,6.9,-,N/A,,Mostly Cloudy,90,2013-02-28 02:00:00
9:30 AM,84.2,73.4,70,29.83,6.2,East,8.1,-,N/A,,Mostly Cloudy,90,2013-02-28 02:30:00
10:00 AM,84.2,73.4,70,29.83,6.2,ENE,11.5,-,N/A,,Mostly Cloudy,60,2013-02-28 03:00:00
10:30 AM,86.0,73.4,66,29.83,6.2,East,13.8,-,N/A,,Mostly Cloudy,90,2013-02-28 03:30:00
11:00 AM,86.0,71.6,62,29.83,6.2,ENE,10.4,-,N/A,,Mostly Cloudy,70,2013-02-28 04:00:00
11:30 AM,86.0,73.4,66,29.83,6.2,ESE,11.5,-,N/A,,Mostly Cloudy,110,2013-02-28 04:30:00
12:00 PM,89.6,73.4,59,29.83,6.2,ENE,11.5,-,N/A,,Mostly Cloudy,70,2013-02-28 05:00:00
12:30 PM,87.8,71.6,58,29.83,6.2,East,11.5,-,N/A,,Mostly Cloudy,90,2013-02-28 05:30:00
1:00 PM,90,73,49,29.76,6,East,9.2,,,,Scattered Clouds,90,2013-02-28 06:00:00
1:00 PM,87.8,71.6,58,29.80,6.2,East,9.2,-,N/A,,Mostly Cloudy,90,2013-02-28 06:00:00
1:30 PM,89.6,71.6,55,29.77,6.2,East,9.2,-,N/A,,Mostly Cloudy,90,2013-02-28 06:30:00
2:00 PM,89.6,71.6,55,29.77,6.2,East,9.2,-,N/A,,Mostly Cloudy,80,2013-02-28 07:00:00
2:30 PM,91.4,71.6,52,29.77,6.2,West,10.4,-,N/A,,Mostly Cloudy,270,2013-02-28 07:30:00
3:00 PM,89.6,73.4,59,29.74,6.2,WSW,9.2,-,N/A,,Mostly Cloudy,250,2013-02-28 08:00:00
3:30 PM,89.6,73.4,59,29.74,6.2,WSW,9.2,-,N/A,,Mostly Cloudy,250,2013-02-28 08:30:00
4:00 PM,86.0,73.4,66,29.74,5.6,WNW,8.1,-,N/A,Thunderstorm,Thunderstorm,290,2013-02-28 09:00:00
4:30 PM,87.8,73.4,62,29.74,5.6,NW,6.9,-,N/A,Thunderstorm,Thunderstorm,320,2013-02-28 09:30:00
5:00 PM,86.0,73.4,66,29.74,5.6,WNW,6.9,-,N/A,,Mostly Cloudy,290,2013-02-28 10:00:00
5:30 PM,84.2,71.6,66,29.74,5.6,WNW,9.2,-,N/A,,Mostly Cloudy,300,2013-02-28 10:30:00
6:00 PM,82.4,73.4,74,29.74,5.6,WNW,6.9,-,N/A,,Mostly Cloudy,300,2013-02-28 11:00:00
6:30 PM,80.6,73.4,79,29.77,5.6,WNW,9.2,-,N/A,,Mostly Cloudy,300,2013-02-28 11:30:00
7:00 PM,82,75,75,29.71,6,WNW,5.8,,,,Scattered Clouds,300,2013-02-28 12:00:00
7:00 PM,80.6,73.4,79,29.77,5.6,WNW,6.9,-,N/A,,Mostly Cloudy,300,2013-02-28 12:00:00
7:30 PM,78.8,73.4,83,29.77,5.6,ENE,5.8,-,N/A,,Mostly Cloudy,70,2013-02-28 12:30:00
8:00 PM,78.8,73.4,83,29.80,5.6,ENE,4.6,-,N/A,,Mostly Cloudy,60,2013-02-28 13:00:00
8:30 PM,78.8,73.4,83,29.83,5.6,Calm,Calm,-,N/A,,Mostly Cloudy,0,2013-02-28 13:30:00
9:00 PM,78.8,73.4,83,29.83,5.6,SE,3.5,-,N/A,,Mostly Cloudy,140,2013-02-28 14:00:00
9:30 PM,77.0,73.4,89,29.83,5.6,Calm,Calm,-,N/A,,Mostly Cloudy,0,2013-02-28 14:30:00
10:30 PM,77.0,73.4,89,29.86,5.6,Calm,Calm,-,N/A,,Mostly Cloudy,0,2013-02-28 15:30:00
11:00 PM,77.0,73.4,89,29.86,5.6,Calm,Calm,-,N/A,,Mostly Cloudy,0,2013-02-28 16:00:00
11:30 PM,77.0,73.4,89,29.86,5.6,Calm,Calm,-,N/A,,Mostly Cloudy,0,2013-02-28 16:30:00